Wind_Speed
22 22 22 23 24 23 22 22 21 22 22 21 20 20 20 20 20 20 20 20 20 20 20 21 22 23 23 23 24 24 24 24 24 24 25 25 24 25 25 25 25 25 25
23 23 23 23 24 24 23 23 22 22 22 22 21 21 21 20 20 21 20 20 20 20 21 22 23 24 23 24 24 24 25 25 25 25 25 26 26 26 26 26 25 25 25
23 23 23 23 23 23 23 23 22 22 22 22 22 22 20 20 21 21 21 21 21 21 21 22 23 24 23 24 24 25 25 25 26 26 26 26 26 26 26 26 26 26 26
23 24 23 23 22 22 21 21 21 21 21 21 21 21 21 21 21 22 22 21 22 22 22 22 23 23 23 24 24 24 25 25 25 25 26 26 27 27 27 27 27 27 28
22 22 22 21 20 19 19 20 21 21 21 21 21 21 21 21 21 21 21 21 21 22 23 23 22 23 23 24 24 24 24 25 25 25 25 25 26 26 26 26 27 27 28
21 21 20 20 19 19 19 19 20 20 20 20 21 21 21 21 20 20 20 20 21 21 22 22 23 23 23 23 23 23 23 23 24 24 24 24 24 25 25 25 25 26 26
22 21 20 20 19 19 19 20 20 20 20 20 21 21 21 21 21 20 21 20 20 21 21 22 23 23 23 23 23 23 23 23 23 23 23 23 23 22 23 23 23 23 23
21 21 20 20 20 20 20 20 20 21 21 21 20 20 20 20 20 20 21 21 21 21 22 22 22 22 22 22 22 22 21 21 21 22 22 22 21 21 21 22 22 22 21
21 21 21 21 21 21 21 21 20 20 20 20 20 20 20 20 20 21 22 23 21 22 23 23 22 22 22 22 22 21 21 21 22 22 22 21 20 20 20 20 21 21 21
22 21 21 21 21 21 21 21 20 20 20 20 20 20 20 20 21 21 22 22 22 22 22 22 22 21 21 20 20 21 21 21 21 21 21 21 20 20 20 20 20 20 21
22 22 21 21 21 20 20 20 19 20 20 20 20 20 20 21 22 21 21 22 22 22 22 21 21 21 21 20 19 20 20 20 20 20 20 20 20 21 20 20 20 20 20
22 22 21 20 20 20 20 20 19 19 20 20 21 21 21 22 22 21 21 21 21 21 21 21 20 20 20 19 19 19 19 19 19 19 19 19 20 20 20 19 19 20 20
22 21 20 20 20 20 20 20 20 19 20 19 19 19 20 21 21 20 20 20 20 20 21 21 20 20 20 18 18 18 18 18 18 19 19 19 19 20 20 19 19 19 19
22 21 20 20 20 20 20 20 20 19 19 19 19 19 19 21 21 21 21 20 20 20 20 20 19 19 19 18 18 18 17 17 17 18 18 19 19 19 19 19 19 19 19
22 21 21 21 21 21 20 20 20 19 19 19 19 20 20 21 21 21 21 20 20 19 19 19 19 19 18 18 18 18 18 17 18 18 18 18 19 19 20 19 19 19 19
23 22 22 22 21 21 21 21 21 20 19 19 19 20 20 21 20 20 20 20 19 19 19 19 19 19 18 18 18 18 17 17 17 17 17 18 18 18 18 18 18 18 19
23 24 24 23 23 22 22 21 21 21 20 20 20 20 20 21 20 19 20 20 20 20 20 20 20 19 19 18 18 17 17 17 17 17 17 18 18 18 18 18 17 18 19
24 24 23 23 23 23 22 22 21 21 21 21 21 21 21 20 20 19 19 20 20 20 20 20 20 20 19 19 19 18 18 18 18 18 18 19 19 19 19 19 18 18 19
25 25 24 24 24 23 23 23 22 22 22 22 22 22 21 21 20 20 20 20 20 20 20 20 20 20 20 20 19 19 19 19 20 20 20 20 20 20 20 19 18 18 18
26 26 26 25 25 24 24 24 23 23 23 23 22 22 21 21 21 20 20 20 20 20 20 20 20 20 20 20 20 21 21 20 21 21 21 20 20 20 20 20 19 19 20
26 25 25 25 25 25 25 25 24 23 24 24 23 23 22 22 22 21 20 20 20 20 20 21 21 21 21 21 21 21 22 22 22 22 21 21 21 21 20 20 20 20 21
25 25 25 25 25 25 25 25 24 25 25 26 25 24 24 24 23 22 22 22 22 21 21 21 21 21 22 22 22 22 23 23 22 21 21 21 21 22 22 22 21 21 21
24 24 25 25 25 25 25 25 25 25 26 26 26 26 25 25 25 24 24 24 23 23 23 23 22 22 22 23 22 23 23 22 22 22 22 21 22 22 22 23 22 22 22
23 24 24 25 25 26 26 26 26 26 26 26 26 27 26 26 26 25 25 25 24 24 24 24 24 24 23 23 23 24 24 24 24 23 23 23 23 23 23 23 22 22 22
24 24 25 25 26 26 26 26 26 26 26 26 26 26 26 26 26 26 26 26 26 25 25 26 26 26 25 25 25 25 25 25 25 25 25 24 24 24 23 23 23 23 23
24 24 25 26 26 26 26 26 26 26 26 27 27 27 28 27 28 27 27 27 27 27 26 27 27 27 27 26 26 26 26 26 26 26 26 25 25 25 24 24 24 24 24
Wind_Direction
267 268 265 264 264 265 262 261 260 262 263 265 268 268 267 269 271 274 276 275 273 273 274 275 275 275 276 276 275 273 272 271 270 268 266 266 267 267 268 268 267 267 268
265 266 264 265 263 261 260 261 259 261 262 265 267 267 267 269 271 273 275 275 273 275 277 277 278 279 279 276 275 274 272 270 270 268 267 266 267 268 268 268 268 269 268
265 266 264 263 263 261 261 260 260 262 262 264 267 267 267 268 270 271 272 275 275 276 278 279 281 282 280 278 277 275 272 269 269 268 267 267 268 268 268 269 270 270 270
262 262 263 263 261 260 261 260 261 263 264 266 268 268 266 268 270 271 272 275 277 279 281 282 284 283 282 278 278 277 273 270 270 269 268 267 266 267 268 269 270 271 270
261 261 262 264 263 261 264 264 264 265 265 267 268 269 269 269 270 271 271 274 277 279 282 285 285 286 284 281 277 276 273 271 271 272 270 269 268 267 268 271 272 271 271
262 262 262 266 267 265 265 265 266 266 266 268 271 271 269 269 270 271 269 274 277 280 285 286 286 286 285 282 278 276 275 273 273 272 271 271 271 271 269 270 271 270 269
259 259 261 262 263 263 264 266 268 269 268 270 272 271 269 269 271 270 268 273 277 282 285 287 287 286 285 284 280 278 276 275 273 271 270 271 273 274 270 271 271 272 270
257 257 259 260 261 263 264 267 269 270 269 269 269 270 269 270 272 271 271 274 279 284 286 287 287 287 287 284 282 281 279 278 275 271 270 272 272 273 273 271 269 269 267
257 258 259 260 261 263 264 268 268 268 268 268 267 268 270 272 275 275 275 274 279 283 286 286 286 287 287 285 281 280 280 277 275 273 271 271 271 272 274 274 271 268 268
257 257 258 260 262 263 264 266 267 268 268 268 268 269 270 272 276 279 279 277 279 282 285 284 284 286 286 284 283 281 280 278 276 274 274 273 274 276 277 276 274 271 270
256 257 257 259 260 263 264 266 267 268 269 270 270 269 270 272 276 279 280 280 281 282 284 285 286 286 286 285 284 284 283 280 276 274 275 275 277 279 278 277 275 272 272
255 256 256 258 261 265 266 266 267 268 269 271 272 272 272 274 276 278 280 281 284 285 284 284 285 284 285 285 285 285 284 280 276 275 276 277 279 280 277 276 275 274 275
254 255 255 258 261 263 265 267 267 269 272 272 273 274 275 276 278 279 280 281 284 285 284 282 282 282 281 284 286 285 286 284 279 276 276 278 280 280 278 275 273 272 276
254 256 258 260 262 264 265 267 268 269 272 272 271 275 276 278 279 282 281 283 284 285 284 282 282 281 280 281 284 284 284 284 281 279 278 278 279 279 278 277 277 275 276
255 257 258 259 262 264 265 267 269 270 270 271 274 277 277 278 279 282 280 281 280 280 281 283 283 284 282 280 282 284 283 282 283 281 278 278 280 280 279 279 280 277 277
252 255 257 259 262 264 266 268 267 268 268 270 274 277 276 277 278 281 280 280 279 277 278 281 283 283 283 282 281 282 282 282 283 281 282 281 281 281 281 282 284 282 281
252 254 256 259 264 266 266 267 266 266 267 270 274 277 277 277 279 280 279 279 279 277 276 277 279 280 282 281 281 282 282 282 283 284 283 283 284 283 285 285 283 281 281
253 254 256 259 262 264 265 266 265 265 267 270 273 275 276 277 278 279 279 280 280 277 275 276 276 277 278 278 278 281 282 282 283 284 284 284 284 286 287 287 286 283 282
253 254 256 258 261 263 265 266 265 266 267 269 271 273 274 275 276 276 277 279 280 278 275 275 275 276 277 277 277 278 279 280 282 283 284 284 285 286 286 287 287 284 283
253 253 255 257 260 262 264 265 266 267 268 268 269 270 271 273 275 276 276 276 278 277 275 275 276 277 277 277 278 277 276 278 281 282 283 283 284 285 285 285 284 283 283
253 252 253 255 257 260 262 264 264 266 269 269 269 269 270 272 274 275 275 276 277 276 275 275 276 278 277 275 276 277 278 279 281 281 280 280 281 283 285 285 283 283 284
252 252 253 255 257 260 262 265 266 266 268 269 269 270 270 271 272 273 274 274 274 274 275 277 278 279 280 279 278 279 280 280 282 282 282 280 280 282 283 283 282 283 284
254 253 253 254 257 260 262 264 266 268 268 269 269 269 270 271 271 272 272 272 271 272 273 274 276 278 280 281 280 283 284 283 282 283 282 281 281 282 283 282 280 281 283
256 255 255 256 258 260 263 265 267 268 268 268 268 268 269 270 270 271 272 271 269 270 270 272 274 276 278 279 280 282 283 282 281 281 282 281 282 282 283 283 280 280 281
258 257 258 259 260 261 263 265 266 267 267 267 268 269 269 269 269 270 272 272 272 272 272 272 273 275 276 278 278 280 281 281 280 280 280 279 280 280 281 281 280 281 282
260 260 260 261 261 262 264 265 266 268 268 267 268 269 269 269 271 271 271 271 272 273 273 273 274 275 276 276 278 279 279 280 279 278 278 278 278 278 280 280 280 281 283
Height
5806 5806 5806 5806 5806 5806 5806 5806 5807 5807 5807 5807 5807 5807 5807 5807 5807 5806 5806 5805 5804 5803 5802 5802 5801 5800 5799 5798 5798 5797 5796 5796 5796 5795 5795 5795 5795 5795 5794 5794 5793 5793 5793
5800 5800 5800 5800 5800 5800 5800 5800 5801 5801 5801 5801 5801 5801 5801 5801 5801 5801 5800 5799 5799 5798 5797 5796 5795 5794 5793 5792 5791 5790 5789 5789 5789 5788 5788 5788 5788 5788 5787 5787 5786 5786 5786
5793 5793 5793 5794 5794 5794 5794 5794 5795 5795 5795 5795 5795 5795 5795 5795 5795 5795 5794 5794 5793 5792 5791 5790 5789 5787 5786 5785 5783 5783 5782 5782 5781 5781 5781 5781 5781 5780 5780 5780 5779 5779 5779
5787 5787 5787 5787 5787 5788 5788 5788 5789 5789 5789 5789 5789 5789 5789 5789 5789 5789 5788 5788 5787 5786 5785 5784 5782 5780 5779 5777 5776 5775 5774 5774 5773 5773 5773 5773 5773 5773 5772 5772 5772 5772 5771
5780 5780 5781 5781 5781 5781 5782 5782 5783 5783 5784 5783 5783 5783 5783 5783 5783 5782 5782 5782 5781 5781 5779 5777 5776 5774 5772 5770 5769 5768 5766 5766 5765 5765 5765 5765 5765 5765 5765 5764 5764 5764 5763
5775 5775 5775 5775 5775 5775 5776 5777 5777 5777 5777 5777 5777 5777 5777 5777 5776 5776 5776 5776 5775 5774 5773 5771 5769 5767 5765 5763 5762 5761 5760 5759 5758 5758 5758 5758 5758 5758 5757 5757 5756 5756 5756
5769 5769 5770 5770 5770 5771 5771 5771 5771 5771 5771 5771 5771 5771 5771 5771 5771 5770 5770 5770 5769 5768 5767 5765 5762 5760 5758 5756 5754 5753 5753 5752 5752 5752 5752 5751 5751 5751 5750 5749 5749 5748 5749
5763 5764 5764 5764 5765 5765 5766 5766 5766 5765 5765 5765 5765 5765 5765 5765 5765 5765 5764 5764 5763 5762 5760 5758 5756 5754 5752 5750 5748 5747 5746 5746 5745 5745 5745 5745 5745 5744 5743 5743 5742 5742 5742
5757 5758 5759 5759 5760 5760 5760 5760 5760 5759 5759 5759 5759 5758 5759 5759 5759 5758 5757 5757 5756 5755 5753 5752 5750 5748 5746 5744 5742 5741 5740 5739 5739 5738 5738 5738 5738 5738 5737 5737 5736 5736 5736
5751 5752 5753 5753 5754 5754 5754 5754 5754 5754 5753 5753 5753 5753 5753 5753 5752 5752 5751 5751 5750 5749 5747 5745 5743 5742 5740 5738 5736 5735 5734 5734 5733 5732 5732 5732 5732 5732 5731 5731 5730 5730 5730
5746 5746 5747 5747 5748 5748 5748 5748 5748 5748 5747 5747 5747 5747 5747 5747 5746 5745 5745 5744 5743 5742 5741 5739 5737 5736 5734 5733 5731 5730 5729 5728 5727 5727 5726 5726 5726 5725 5725 5724 5724 5724 5724
5740 5740 5741 5741 5742 5742 5742 5742 5742 5742 5742 5741 5741 5741 5741 5740 5740 5739 5739 5738 5737 5736 5734 5733 5731 5730 5729 5727 5726 5725 5723 5722 5722 5721 5721 5720 5720 5719 5719 5719 5718 5718 5718
5733 5734 5734 5735 5735 5736 5736 5736 5736 5736 5735 5735 5735 5735 5734 5734 5734 5733 5732 5731 5730 5729 5728 5727 5726 5724 5723 5722 5721 5720 5718 5717 5716 5716 5715 5715 5714 5714 5713 5713 5712 5712 5712
5726 5727 5728 5728 5729 5729 5730 5730 5729 5729 5729 5729 5729 5729 5728 5728 5727 5726 5726 5725 5724 5723 5722 5721 5720 5719 5717 5717 5715 5714 5713 5712 5711 5710 5710 5709 5708 5708 5707 5707 5706 5706 5705
5719 5720 5721 5722 5723 5723 5723 5723 5723 5723 5723 5724 5723 5723 5722 5722 5721 5720 5719 5718 5717 5716 5715 5715 5714 5713 5712 5711 5710 5709 5708 5707 5706 5705 5705 5704 5703 5702 5701 5701 5700 5700 5699
5713 5714 5715 5716 5716 5716 5717 5717 5717 5717 5717 5717 5717 5717 5716 5716 5715 5714 5713 5712 5711 5710 5709 5709 5708 5707 5707 5706 5705 5704 5703 5702 5701 5700 5699 5698 5697 5697 5696 5695 5694 5694 5693
5706 5707 5708 5709 5709 5710 5710 5710 5710 5711 5711 5711 5711 5710 5710 5709 5709 5708 5707 5706 5705 5704 5704 5703 5703 5702 5701 5701 5700 5699 5698 5697 5696 5695 5694 5693 5692 5691 5690 5689 5688 5688 5687
5698 5699 5700 5701 5702 5703 5703 5704 5704 5704 5704 5704 5704 5704 5704 5703 5702 5702 5701 5700 5699 5698 5698 5697 5697 5696 5696 5695 5694 5694 5693 5692 5691 5690 5689 5688 5687 5686 5685 5683 5682 5682 5681
5690 5691 5693 5694 5695 5695 5696 5696 5697 5697 5697 5698 5698 5697 5697 5696 5696 5695 5694 5694 5693 5692 5691 5691 5690 5690 5689 5689 5688 5688 5687 5687 5686 5684 5683 5682 5681 5680 5679 5678 5676 5676 5675
5682 5683 5685 5686 5687 5688 5689 5689 5690 5690 5690 5690 5690 5690 5690 5689 5689 5688 5688 5687 5686 5685 5685 5685 5684 5684 5683 5682 5682 5681 5681 5680 5679 5678 5677 5676 5675 5674 5672 5671 5670 5670 5669
5674 5675 5676 5678 5679 5680 5680 5681 5682 5682 5682 5682 5683 5683 5683 5682 5682 5681 5681 5680 5679 5679 5678 5678 5677 5677 5676 5676 5675 5674 5674 5673 5672 5671 5670 5669 5668 5667 5666 5665 5664 5663 5663
5665 5667 5668 5669 5671 5672 5672 5673 5673 5674 5674 5675 5675 5675 5675 5675 5674 5674 5673 5673 5672 5672 5671 5671 5670 5670 5669 5669 5668 5667 5667 5666 5665 5664 5663 5662 5661 5660 5659 5658 5657 5656 5655
5657 5658 5660 5661 5663 5663 5664 5665 5665 5666 5666 5666 5667 5667 5667 5667 5666 5666 5666 5665 5665 5665 5664 5664 5663 5663 5662 5661 5661 5660 5659 5659 5658 5657 5656 5655 5654 5653 5652 5651 5650 5649 5648
5650 5651 5652 5654 5655 5655 5656 5657 5657 5657 5658 5658 5658 5658 5658 5658 5658 5658 5658 5657 5657 5657 5656 5656 5656 5655 5654 5654 5653 5652 5652 5651 5651 5650 5649 5648 5647 5646 5645 5644 5643 5642 5641
5642 5643 5644 5645 5646 5647 5647 5648 5648 5649 5649 5649 5649 5649 5649 5650 5650 5649 5649 5649 5648 5648 5648 5648 5647 5647 5646 5646 5645 5645 5644 5643 5642 5642 5641 5640 5639 5638 5637 5636 5635 5634 5633
5635 5635 5636 5637 5638 5638 5639 5639 5640 5640 5640 5640 5640 5640 5641 5641 5641 5641 5640 5640 5640 5640 5639 5639 5639 5638 5638 5637 5637 5636 5635 5635 5634 5633 5632 5632 5631 5630 5629 5628 5628 5627 5626